Weather History for Toledo, OH

Change the Weather History Date:

Wednesday, March 20, 2013

  Actual Average Record
Temperature  
Mean Temperature 24 °F 39 °F  
Max Temperature 31 °F 49 °F 82 °F (2012)
Min Temperature 17 °F 30 °F -2 °F (1885)
Degree Days  
Heating Degree Days 41 26  
Month to date heating degree days 655 590  
Since 1 July heating degree days 5111 5166  
Cooling Degree Days 0 0  
Month to date cooling degree days 0 0  
Year to date cooling degree days 0 0  
Moisture  
Dew Point 12 °F    
Average Humidity 58    
Maximum Humidity 74    
Minimum Humidity 42    
Precipitation  
Precipitation T in 0.08 in 0.69 in (1984)
Month to date precipitation 0.54 1.52  
Year to date precipitation 6.98 5.64  
Snow  
Snow T in 0.20 in - ()
Month to date snowfall 0.1 4.3  
Since 1 July snowfall 20.8 34.8  
Snow Depth 0.00 in    
Sea Level Pressure  
Sea Level Pressure 29.97 in    
Wind  
Wind Speed 13 mph (West)    
Max Wind Speed 24 mph    
Max Gust Speed 29 mph    
Visibility 10 miles    
Events      
T = Trace of Precipitation, MM = Missing Value Source: NWS Daily Summary

Daily Weather History Graph

Daily Weather History Graph

Search for Another Location

Airport:

Trip Planner

Search our weather history database for the weather conditions in past years. The results will help you decide how hot, cold, wet, or windy it might be!

Date:

Astronomy

Mar. 20, 2013 Rise Set
Actual Time 7:38 AM EDT 7:47 PM EDT
Civil Twilight 7:10 AM EDT 8:15 PM EDT
Nautical Twilight 6:38 AM EDT 8:47 PM EDT
Astronomical Twilight 6:05 AM EDT 9:20 PM EDT
Moon 1:17 PM EDT (3/20) 3:21 AM EDT (3/20)
Length of Visible Light 13h 04m
Length of Day
12h 09m
First Quarter, 59% of the Moon is Illuminated
Mar 20
First Quarter
Mar 27
Full
Apr 3
Last Quarter
Apr 10
New
Apr 18
First Quarter

Hourly Weather History & Observations

Time (EDT) Temp. Windchill Dew Point Humidity Pressure Visibility Wind Dir Wind Speed Gust Speed Precip Events Conditions
12:52 AM 27.0 °F 16.7 °F 16.0 °F 63% 29.98 in 10.0 mi West 11.5 mph - N/A   Clear
1:52 AM 27.0 °F 18.0 °F 16.0 °F 63% 29.98 in 10.0 mi West 9.2 mph - N/A   Clear
2:52 AM 27.0 °F 16.7 °F 15.1 °F 61% 29.98 in 10.0 mi West 11.5 mph - N/A   Clear
3:52 AM 26.1 °F 16.2 °F 15.1 °F 63% 29.97 in 10.0 mi West 10.4 mph - N/A   Clear
4:52 AM 24.1 °F 19.7 °F 15.1 °F 69% 29.95 in 10.0 mi WSW 3.5 mph - N/A   Clear
5:52 AM 23.0 °F 13.9 °F 16.0 °F 74% 29.96 in 10.0 mi WSW 8.1 mph - N/A   Mostly Cloudy
6:52 AM 25.0 °F 14.2 °F 15.1 °F 66% 29.97 in 10.0 mi WSW 11.5 mph - N/A   Overcast
7:52 AM 24.1 °F 16.0 °F 17.1 °F 75% 29.96 in 10.0 mi West 6.9 mph - 0.00 in   Overcast
8:07 AM 24.8 °F 16.9 °F 17.6 °F 74% 29.94 in 9.0 mi West 6.9 mph - 0.00 in   Overcast
8:32 AM 24.8 °F 16.1 °F 17.6 °F 74% 29.94 in 10.0 mi West 8.1 mph - 0.00 in   Mostly Cloudy
8:52 AM 26.1 °F 16.8 °F 12.9 °F 58% 29.97 in 10.0 mi WNW 9.2 mph - 0.00 in   Partly Cloudy
9:52 AM 27.0 °F 15.6 °F 12.0 °F 53% 29.98 in 10.0 mi West 13.8 mph 23.0 mph N/A   Scattered Clouds
10:52 AM 26.1 °F 14.5 °F 10.0 °F 51% 29.98 in 9.0 mi West 13.8 mph 19.6 mph 0.00 in   Overcast
11:52 AM 28.9 °F 16.9 °F 10.0 °F 45% 29.97 in 10.0 mi West 17.3 mph 23.0 mph 0.00 in   Overcast
12:52 PM 28.0 °F 17.5 °F 9.0 °F 45% 29.96 in 10.0 mi West 12.7 mph - N/A   Overcast
1:52 PM 28.9 °F 17.7 °F 10.0 °F 45% 29.95 in 10.0 mi West 15.0 mph 24.2 mph N/A   Overcast
2:52 PM 28.0 °F 14.9 °F 9.0 °F 45% 29.95 in 10.0 mi West 19.6 mph - N/A   Overcast
3:52 PM 28.0 °F 16.5 °F 10.0 °F 47% 29.94 in 10.0 mi West 15.0 mph 23.0 mph N/A   Overcast
4:52 PM 27.0 °F 14.7 °F 10.0 °F 49% 29.94 in 10.0 mi West 16.1 mph 27.6 mph N/A   Mostly Cloudy
5:52 PM 27.0 °F 15.2 °F 7.0 °F 43% 29.95 in 10.0 mi WNW 15.0 mph 23.0 mph N/A   Mostly Cloudy
6:52 PM 24.8 °F 11.5 °F 5.0 °F 43% 29.94 in 10.0 mi WNW 17.3 mph 23.0 mph N/A   Partly Cloudy
7:52 PM 23.0 °F 10.1 °F 6.1 °F 48% 29.98 in 10.0 mi West 15.0 mph - N/A   Mostly Cloudy
8:52 PM 21.0 °F 7.1 °F 8.1 °F 57% 29.99 in 10.0 mi WNW 16.1 mph 21.9 mph N/A   Mostly Cloudy
9:52 PM 19.9 °F 6.7 °F 9.0 °F 62% 29.99 in 10.0 mi West 13.8 mph 19.6 mph 0.00 in   Clear
10:52 PM 19.0 °F 6.8 °F 9.0 °F 65% 29.99 in 10.0 mi West 11.5 mph - N/A   Clear
11:52 PM 18.0 °F 7.7 °F 9.0 °F 68% 29.99 in 10.0 mi WNW 8.1 mph - N/A   Clear